Regional Weather Roundup
Issued by NWS

Home | Current Version | Previous Version | Graphics & Text | Print | Product List | Glossary On
Versions: 1 2 3 4 5 6 7 8 9 10 11 12 13 14 15 16 17 18 19 20 21 22 23 24 25 26 27 28 29 30 31 32 33 34 35 36 37 38 39 40 41 42 43 44 45 46 47 48 49 50
000
ASUS45 KSLC 070010
RWRUT

UTAH REGIONAL WEATHER ROUNDUP
NATIONAL WEATHER SERVICE SALT LAKE CITY UT
500 PM MST FRI MAR 06 2015

UTZ001>011-023>025-070100-

NORTHERN UTAH

CITY           SKY/WX    TMP DP  RH WIND       PRES   REMARKS
BRIGHAM CITY   SUNNY     52  20  28 CALM      30.39F
HILL AFB       SUNNY     51  17  25 NW7       30.38F
LOGAN          SUNNY     53  21  28 SW6       30.38S
OGDEN          SUNNY     52  26  36 W6        30.38F
PROVO AIRPORT  SUNNY     50  19  29 SW3       30.38F
SALT LAKE CITY MOSUNNY   53  24  32 N10       30.38F
VERNAL         SUNNY     48  21  34 CALM      30.35F
WENDOVER       SUNNY     54  21  28 CALM      30.38F
HEBER CITY     SUNNY     52  21  30 SW6       30.36S
WEST JORDAN    SUNNY     52  27  37 NW10      30.39S

$$

UTZ012>022-026-027-070100-

SOUTHERN/CENTRAL UTAH

CITY           SKY/WX    TMP DP  RH WIND       PRES   REMARKS
BLANDING       SUNNY     51  24  35 NE6       30.38F
BRYCE CANYON   SUNNY     40  19  43 CALM      30.36F
CEDAR CITY     SUNNY     50  25  37 N8        30.32F
DELTA          SUNNY     55  19  24 NE5       30.36S
HANKSVILLE     SUNNY     54  14  20 N6        30.35F
MILFORD        SUNNY     54  22  28 N14       30.34F
MOAB/CYNLANDS  SUNNY     53  19  26 NW7       30.31F
PRICE          SUNNY     49  21  33 CALM      30.35F
ST GEORGE      CLEAR     64  27  24 W3        30.24F
KANAB          SUNNY     55  19  24 NE8       30.33S

$$

REGIONAL REPORTS     COLORADO/ARIZONA

CITY           SKY/WX    TMP DP  RH WIND       PRES   REMARKS
CRAIG, CO      SUNNY     45  22  40 E6        30.36S
GRAND JUNCTION SUNNY     52  15  23 NW3       30.32F
RIFLE          SUNNY     53  14  21 CALM      30.33F
MONTROSE       SUNNY     50  17  27 CALM      30.35F
CORTEZ         SUNNY     51  27  39 W7        30.31F
PAGE, AZ       SUNNY     55  20  25 NE3       30.30F
GRAND CANYON   SUNNY     46  22  38 NE18      30.32S
KINGMAN        SUNNY     67  21  17 N18       30.15F
FLAGSTAFF      SUNNY     45  13  27 NE17G26   30.27F

$$

REGIONAL REPORTS    NEVADA/IDAHO/WYOMING

CITY           SKY/WX    TMP DP  RH WIND       PRES   REMARKS
LAS VEGAS, NV  SUNNY     72  14  11 E10       30.14F
ELY            SUNNY     54  17  23 N12       30.35F
ELKO           SUNNY     61   5  10 NE9       30.34S
POCATELLO, ID  SUNNY     55  19  24 W10       30.36F
BURLEY         SUNNY     57  14  18 W6        30.34F
EVANSTON, WY   SUNNY     43  22  43 SW12      30.38S
ROCK SPRINGS   SUNNY     43  22  43 SW17G26   30.30F
KEMMERER       SUNNY     43  19  39 W17       30.36F

$$



USA.gov is the U.S. government's official web portal to all federal, state and local government web resources and services.